Weather History for Lawrence, KS

Change the Weather History Date:

Wednesday, January 1, 2014

  Actual Average Record
Temperature  
Mean Temperature 23 °F 29 °F  
Max Temperature 37 °F 39 °F 66 °F (2006)
Min Temperature 9 °F 19 °F -9 °F (2001)
Degree Days  
Heating Degree Days 42 36  
Month to date heating degree days 42 36  
Since 1 July heating degree days 2193 2079  
Cooling Degree Days 0 0  
Month to date cooling degree days 0 0  
Year to date cooling degree days 0 0  
Moisture  
Dew Point 11 °F    
Average Humidity 69    
Maximum Humidity 84    
Minimum Humidity 54    
Precipitation  
Precipitation 0.02 in 0.03 in 0.11 in (1999)
Month to date precipitation 0.02 0.03  
Year to date precipitation 0.02 0.03  
Sea Level Pressure  
Sea Level Pressure 30.21 in    
Wind  
Wind Speed 12 mph (North)    
Max Wind Speed 24 mph    
Max Gust Speed 29 mph    
Visibility 6 miles    
Events Snow    
T = Trace of Precipitation, MM = Missing Value Source: NWS Daily Summary

Daily Weather History Graph

Daily Weather History Graph

Search for Another Location

Airport:

Trip Planner

Search our weather history database for the weather conditions in past years. The results will help you decide how hot, cold, wet, or windy it might be!

Date:

Astronomy

Jan. 01, 2014 Rise Set
Actual Time 7:39 AM CST 5:09 PM CST
Civil Twilight 7:09 AM CST 5:39 PM CST
Nautical Twilight 6:36 AM CST 6:12 PM CST
Astronomical Twilight 6:04 AM CST 6:45 PM CST
Moon 7:31 AM CST (1/1) 5:54 PM CST (1/1)
Length of Visible Light 10h 29m
Length of Day
9h 29m
New Moon, 0% of the Moon is Illuminated
Jan 1
New Moon
Jan 7
First Quarter
Jan 15
Full
Jan 23
Last Quarter
Jan 30
New

Hourly Weather History & Observations

Time (CST) Temp. Windchill Dew Point Humidity Pressure Visibility Wind Dir Wind Speed Gust Speed Precip Events Conditions
12:52 AM 30.9 °F 23.5 °F 21.0 °F 67% 30.07 in 10.0 mi NNW 8.1 mph - N/A   Clear
1:52 AM 30.0 °F 26.5 °F 21.0 °F 69% 30.07 in 10.0 mi SSW 3.5 mph - N/A   Clear
2:52 AM 26.1 °F - 21.0 °F 81% 30.07 in 10.0 mi Calm Calm - N/A   Clear
3:52 AM 21.9 °F 15.7 °F 18.0 °F 85% 30.06 in 10.0 mi NNW 4.6 mph - N/A   Clear
4:52 AM 21.0 °F - 17.1 °F 85% 30.05 in 10.0 mi Calm Calm - N/A   Clear
5:52 AM 21.9 °F 12.5 °F 17.1 °F 82% 30.07 in 9.0 mi NNW 8.1 mph - N/A   Clear
6:52 AM 19.9 °F 8.6 °F 15.1 °F 81% 30.10 in 8.0 mi North 10.4 mph - N/A   Clear
7:52 AM 19.9 °F 10.1 °F 14.0 °F 78% 30.12 in 7.0 mi North 8.1 mph - N/A   Clear
8:52 AM 21.0 °F 11.4 °F 15.1 °F 78% 30.15 in 7.0 mi North 8.1 mph - N/A   Clear
9:52 AM 21.0 °F 9.9 °F 14.0 °F 74% 30.16 in 7.0 mi NNE 10.4 mph - N/A   Scattered Clouds
10:52 AM 23.0 °F 11.1 °F 15.1 °F 72% 30.17 in 8.0 mi North 12.7 mph - N/A   Overcast
11:52 AM 25.0 °F 13.6 °F 15.1 °F 66% 30.13 in 9.0 mi North 12.7 mph - N/A   Clear
12:52 PM 24.1 °F 12.0 °F 15.1 °F 69% 30.12 in 9.0 mi North 13.8 mph - N/A   Clear
1:19 PM 23.0 °F 10.1 °F 14.0 °F 68% 30.09 in 9.0 mi North 15.0 mph - N/A   Mostly Cloudy
1:52 PM 24.1 °F 12.5 °F 14.0 °F 65% 30.12 in 9.0 mi North 12.7 mph - N/A   Mostly Cloudy
2:52 PM 23.0 °F 8.7 °F 12.0 °F 63% 30.13 in 9.0 mi North 18.4 mph 26.5 mph N/A   Overcast
3:52 PM 21.0 °F 7.6 °F 10.9 °F 65% 30.18 in 7.0 mi North 15.0 mph - N/A   Overcast
4:52 PM 19.0 °F 4.0 °F 9.0 °F 65% 30.23 in 10.0 mi North 17.3 mph 24.2 mph N/A   Overcast
5:01 PM 18.0 °F 2.2 °F 8.1 °F 65% 30.20 in 10.0 mi North 18.4 mph 24.2 mph N/A   Overcast
5:27 PM 17.1 °F 2.5 °F 9.0 °F 71% 30.22 in 2.5 mi North 15.0 mph - 0.00 in Snow Light Snow
5:37 PM 16.0 °F 0.6 °F 9.0 °F 74% 30.23 in 1.8 mi North 16.1 mph - 0.00 in Snow Light Snow
5:52 PM 16.0 °F 1.1 °F 10.0 °F 77% 30.27 in 1.0 mi NNW 15.0 mph 21.9 mph 0.00 in Snow Light Snow
5:57 PM 15.1 °F -1.1 °F 9.0 °F 77% 30.23 in 0.5 mi NNW 17.3 mph - 0.00 in Snow Snow
6:11 PM 14.0 °F -2.0 °F 9.0 °F 80% 30.24 in 0.5 mi North 16.1 mph - 0.01 in Snow Snow
6:20 PM 14.0 °F -3.0 °F 8.1 °F 77% 30.24 in 0.8 mi North 18.4 mph - 0.01 in Snow Light Snow
6:29 PM 14.0 °F -0.8 °F 8.1 °F 77% 30.25 in 1.0 mi North 13.8 mph 23.0 mph 0.01 in Snow Light Snow
6:52 PM 14.0 °F -0.2 °F 8.1 °F 77% 30.30 in 1.2 mi North 12.7 mph - 0.01 in Snow Light Snow
7:50 PM 12.2 °F -2.5 °F 6.8 °F 79% 30.29 in 2.0 mi NNW 12.7 mph 21.9 mph 0.01 in Snow Light Snow
7:52 PM 12.9 °F -3.4 °F 7.0 °F 77% 30.33 in 2.5 mi North 16.1 mph - 0.01 in Snow Light Snow
8:03 PM 12.9 °F -1.6 °F 6.1 °F 74% 30.29 in 3.0 mi NNW 12.7 mph - 0.00 in Snow Light Snow
8:12 PM 12.9 °F -2.2 °F 6.1 °F 74% 30.30 in 1.8 mi North 13.8 mph - 0.00 in Snow Light Snow
8:52 PM 12.9 °F -3.4 °F 6.1 °F 74% 30.36 in 1.8 mi NNW 16.1 mph 24.2 mph 0.00 in Snow Light Snow
9:09 PM 12.9 °F -3.9 °F 6.1 °F 74% 30.32 in 2.0 mi NNW 17.3 mph - 0.00 in Snow Light Snow
9:23 PM 12.0 °F -5.6 °F 5.0 °F 73% 30.32 in 5.0 mi NNW 18.4 mph 26.5 mph 0.00 in   Haze
9:34 PM 12.0 °F -6.5 °F 3.9 °F 70% 30.32 in 10.0 mi NNW 20.7 mph 27.6 mph 0.00 in   Overcast
9:52 PM 12.0 °F -4.5 °F 3.9 °F 70% 30.36 in 10.0 mi NNW 16.1 mph - 0.00 in   Overcast
10:52 PM 10.9 °F -7.9 °F 3.0 °F 70% 30.38 in 10.0 mi NNW 20.7 mph 28.8 mph N/A   Clear
11:52 PM 9.0 °F -8.5 °F 1.0 °F 70% 30.39 in 10.0 mi NNW 16.1 mph - N/A   Partly Cloudy